Location: ???? ??????
(37.8524°N, 22.9988°E)
Time: 01:52:35
(UTC+00:00)

Daily predictions for brighter satellites

Satellite Brightness Start Highest point End
(mag) Time Altitude Azimuth Time Altitude Azimuth Time Altitude Azimuth
CZ-3 Stage 3 4.4 01:27:11 50° SE 01:27:11 50° SE 01:46:13 10° E
CZ-3 R/B 4.0 01:45:41 59° SW 01:47:21 61° SSW 01:58:20 10° ESE
Cosmos 2082 Rocket 4.1 02:07:34 25° ENE 02:07:34 25° ENE 02:10:41 10° NE
Cosmos 1980 Rocket 3.3 02:32:25 40° ENE 02:32:25 40° ENE 02:37:25 10° SE
Tiangong 1.4 02:55:00 12° ENE 02:55:00 12° ENE 02:55:16 10° E
Cosmos 990 Rocket 4.5 03:05:11 49° S 03:05:11 49° S 03:08:59 10° SSE
SL-8 R/B 3.8 03:12:41 70° SE 03:12:41 70° SE 03:16:54 10° SE
Cosmos 1697 Rocket 4.2 03:17:16 22° SSW 03:17:16 22° SSW 03:19:25 10° S
Meteor 2-3 Rocket 4.5 03:19:55 10° S 03:25:29 53° E 03:31:01 10° NNE
Cosmos 489 Rocket 4.4 03:20:44 10° SSW 03:27:03 85° ESE 03:33:21 10° NNE
Nadezhda 4 Rocket 3.9 03:21:46 10° S 03:28:04 89° E 03:34:24 10° N
USA 59 Rocket 0.9 03:34:44 31° N 03:36:15 46° ENE 03:41:12 10° SE
COSMOS 2406 3.1 03:32:28 10° SSW 03:38:08 87° WNW 03:43:50 10° NNE
SL-24 R/B - RUBIN 2 3.4 03:38:33 63° W 03:38:50 66° WSW 03:43:11 10° SSE
CZ-4 R/B 3.7 03:34:46 10° NNE 03:39:25 88° ESE 03:44:01 10° SSW
Cosmos 841 Rocket 3.3 03:34:32 10° SSW 03:39:44 70° WNW 03:44:59 10° NNE
BREEZE-M DEB (TANK) 3.5 03:44:06 32° WNW 03:47:17 87° NNE 03:50:45 10° ESE
Cosmos 2082 Rocket 2.6 03:49:32 36° WNW 03:49:49 36° WNW 03:54:58 10° N
Cosmos 1892 Rocket 3.6 03:45:32 10° S 03:49:51 77° E 03:54:14 10° N
Cosmos 1933 3.1 03:52:07 46° NW 03:53:00 62° W 03:56:46 10° S
SL-16 R/B 3.4 03:47:46 10° N 03:53:05 39° ENE 03:58:21 10° SE
NOSS 2-1 (C) 3.8 03:58:58 24° NNW 04:01:16 68° ENE 04:06:26 10° SE
COSMOS 2455 2.8 03:58:09 18° NNW 04:02:43 77° WSW 04:08:42 10° SSE
IRS-1D 3.7 04:00:28 10° N 04:05:14 45° WNW 04:10:03 10° SW
Cosmos 1898 Rocket 3.5 04:02:27 16° NNW 04:06:34 64° WSW 04:11:46 10° S
Cosmos 1627 Rocket 4.4 04:08:50 10° SSW 04:14:55 75° W 04:21:03 10° N
Cosmos 1980 Rocket 3.2 04:14:14 22° WNW 04:15:54 25° WSW 04:20:23 10° SSW
Cosmos 2278 4.4 04:10:42 10° NNW 04:16:14 53° ENE 04:21:43 10° SE
COSMO-SKYMED 1 2.4 04:13:59 10° S 04:18:02 62° W 04:22:07 10° NNW
SWAS 4.2 04:15:31 16° NNW 04:18:39 74° WSW 04:22:39 10° SSE
SKYMED 2 4.1 04:16:16 10° SSW 04:20:18 38° W 04:24:01 12° NNW
Cosmos-2242 3.4 04:16:21 10° N 04:20:34 64° E 04:24:42 10° SSE
Cosmos 2369 4.0 04:16:16 15° NW 04:20:36 44° WSW 04:25:56 10° S
Delta 2 Rocket 3.7 04:21:31 19° WSW 04:23:04 31° SSW 04:25:47 10° SE
ATLAS 2AS CENTAUR R/B 4.3 04:17:27 10° S 04:23:57 40° ESE 04:30:20 10° NE
Meteor 2-2 Rocket 4.5 04:18:52 10° N 04:24:34 77° E 04:30:22 10° SSE
Meteor 2-20 Rocket 4.5 04:20:48 10° N 04:26:34 77° E 04:32:15 10° S
Cosmos 2058 Rocket 3.1 04:22:28 10° N 04:26:56 85° E 04:31:19 10° S
Tiangong -2.0 04:27:21 22° WNW 04:29:16 71° SSW 04:32:29 10° ESE
BREEZE-M DEB (TANK) 2.8 04:27:12 10° SW 04:30:05 64° SE 04:32:27 10° ENE
Cosmos 1484 Rocket 2.4 04:26:54 10° N 04:30:14 56° WNW 04:33:32 10° SSW
Cosmos 1937 Rocket 3.6 04:26:18 10° NNW 04:31:15 51° WSW 04:36:10 10° S
Cosmos 858 Rocket 4.4 04:26:09 10° NNW 04:31:19 75° WSW 04:36:28 10° S
Okean 1 3.1 04:31:57 10° N 04:35:31 81° E 04:39:03 10° S
ARIANE 5 R/B 4.0 04:31:15 10° NNE 04:36:12 42° E 04:41:07 10° S
Cosmos 2333 Rocket 2.5 04:36:12 10° NNW 04:41:59 75° ENE 04:47:42 10° SSE
IRIDIUM 114 4.4 04:38:36 10° S 04:43:48 89° W 04:49:03 10° N
Cosmos 2026 Rocket 4.3 04:39:03 10° SW 04:44:39 39° WNW 04:50:19 10° N
Cosmos 2360 Rocket 2.9 04:43:12 10° NNW 04:48:44 56° ENE 04:54:13 10° SE
BREEZE M DEB (TANK) 2.1 04:46:44 10° W 04:48:51 39° NNW 04:52:19 10° NE
SMAP 3.2 04:44:29 10° NNE 04:49:10 83° ESE 04:53:49 10° SSW
Cosmos 1814 Rocket 4.0 04:45:37 10° SSW 04:50:47 67° WNW 04:56:03 10° NNE
SAR-Lupe-4 4.2 04:48:42 10° NNE 04:52:13 60° E 04:55:43 10° S
Helios 1A Rocket 3.8 04:50:00 10° SW 04:52:30 20° W 04:55:02 10° NW
IRIDIUM 103 4.3 04:47:47 10° S 04:52:58 73° W 04:58:11 10° N
Landsat 7 4.0 04:50:29 10° NNE 04:55:09 76° ESE 04:59:47 10° S
CBERS-1 4.1 04:51:07 10° N 04:56:04 53° WNW 05:00:58 10° SSW
Cosmos 1758 Rocket 3.6 04:56:00 10° SSW 05:00:24 66° W 05:04:48 10° N
IGS 5A 4.1 04:57:36 10° N 05:01:11 32° WNW 05:04:44 10° SW
IRS-1C 4.4 04:59:08 10° NNE 05:04:29 76° ESE 05:09:47 10° S
Meteor 2-6 Rocket 4.4 04:59:34 10° N 05:05:33 87° W 05:11:29 10° S
Cosmos 2219 Rocket 3.2 05:02:10 10° N 05:07:37 47° ENE 05:13:00 10° SE
